Hourly Data Report for October 03, 2014

All times are specified in Local Standard Time (LST). Add 1 hour to adjust for Daylight Saving Time where and when it is observed.

CHARLOTTETOWN A
PRINCE EDWARD ISLAND

46°17'21.000" N
63°07'09.000" W
48.50 m
8300301
71706
YYG

Download Data

Hourly Data (October 2014)
Hourly Data Report for October 3, 2014
Temp Definition
°C
Dew Point Temp Definition
°C
Rel Hum Definition
%
Wind Dir Definition
10's deg

Wind Spd Definition
km/h
Visibility Definition
km
Stn Press Definition
kPa
Hmdx Definition


Wind Chill Definition


Weather Definition


TIME
00:00 Legend Double Dagger 6.8 4.8 87 6 9 24.1 101.79     LegendNANA
01:00 Legend Double Dagger 5.9 4.4 90 6 12 24.1 101.76     LegendNANA
02:00 Legend Double Dagger 6.9 5.2 89 5 12 24.1 101.67     Mainly Clear
03:00 Legend Double Dagger 5.5 4.3 92 4 9 24.1 101.69     LegendNANA
04:00 Legend Double Dagger 6.5 4.8 89 6 14 24.1 101.66     LegendNANA
05:00 Legend Double Dagger 5.0 4.1 94 5 11 24.1 101.66     Mainly Clear
06:00 Legend Double Dagger 4.8 3.2 89 4 12 24.1 101.63     LegendNANA
07:00 Legend Double Dagger 6.5 5.0 90 4 10 24.1 101.61     LegendNANA
08:00 Legend Double Dagger 10.6 6.8 77 7 16 24.1 101.61     Clear
09:00 Legend Double Dagger 12.2 7.5 73 9 14 24.1 101.64     LegendNANA
10:00 Legend Double Dagger 13.3 7.8 69 8 18 24.1 101.63     LegendNANA
11:00 Legend Double Dagger 14.4 7.7 64 7 11 24.1 101.58     Clear
12:00 Legend Double Dagger 15.5 7.8 60 7 10 24.1 101.52     LegendNANA
13:00 Legend Double Dagger 15.6 9.1 65 2 16 24.1 101.46     LegendNANA
14:00 Legend Double Dagger 14.8 9.2 69 3 20 24.1 101.41     Mainly Clear
15:00 Legend Double Dagger 15.1 9.1 67 4 17 24.1 101.34     LegendNANA
16:00 Legend Double Dagger 14.6 9.7 72 1 15 24.1 101.31     LegendNANA
17:00 Legend Double Dagger 14.4 7.3 62 12 9 24.1 101.28     Clear
18:00 Legend Double Dagger 12.0 7.4 73 11 9 24.1 101.27     LegendNANA
19:00 Legend Double Dagger 10.6 7.3 80 10 8 24.1 101.24     LegendNANA
20:00 Legend Double Dagger 8.3 6.9 91 34 4 24.1 101.26     Mostly Cloudy
21:00 Legend Double Dagger 10.4 8.0 85 9 8 16.1 101.22     LegendNANA
22:00 Legend Double Dagger 11.3 9.4 88 9 8 24.1 101.15     LegendNANA
23:00 Legend Double Dagger 10.4 9.2 92 9 8 16.1 101.11     Mostly Cloudy

Notes on Data Quality.

Legend

  • E = Estimated
  • M = Missing
  • NA = Not Available
  • ‡ = Partner data that is not subject to review by the National Climate Archives
Date modified: